Location: Cargill Incorporated Elevator
(42.7294°N, 93.7333°W)
Time: 05:06:21
(UTC+00:00)

SOZ - Pass Details

Date: 19 January 2026
Orbit: 288 x 12111 km, 52.0° (Epoch: 14 February)

Event Time Altitude Azimuth Distance (km) Brightness Sun altitude
Rises 23:32:45 0° 308° (NW) 1,967 8.1 -4.3°
Reaches altitude 10° 23:34:21 10° 317° (NW) 1,168 6.8 -4.6°
Maximum altitude 23:36:26 42° 33° (NNE) 538 4.4 -5.0°
Drops below altitude 10° 23:39:57 10° 107° (ESE) 1,975 7.2 -5.6°
Sets 23:43:38 0° 113° (ESE) 3,780 8.7 -6.2°
